[[{"header":{"parameterUnit":"m.s-1","parameterCategory":1,"la1":30.2991,"la2":30.254,"lo1":-89.0895,"lo2":-89.0444,"dy":0.0017,"dx":0.0017,"nx":28,"ny":28,"refTime":"2023-08-22T09:00:00:Z","depth":0,"parameterNumber":2,"parameterNumberName":"U-component_of_WINDS"},"data":[0,0,0,0,0,0,0,0,0,0,0,0,0,0,0,0,0,0,0,0,0,0,0,0,0,0,0,0,0,0,0,0,0,0,0,0,0,0,0,0,0,0,0,0,0,0,0,0,0,0,0,0,0,0,0,0,0,0,-2.0145,-2.0143,0,-1.9963,-1.996,-1.9958,-1.9863,-1.9862,-1.9862,-1.9862,-1.9675,-1.967,-1.9665,0,0,0,0,0,0,0,0,0,0,0,0,0,-2.0413,-2.0409,-2.0145,-2.0143,-2.0141,-1.9963,-1.996,-1.9958,-1.9863,-1.9862,-1.9862,-1.9862,-1.9676,-1.9671,-1.9665,0,0,0,0,0,0,0,0,0,0,0,0,0,-2.027,-2.0407,-2.0146,-2.0072,-2.0063,-1.9963,-1.996,-1.9957,-1.9863,-1.9862,-1.9862,-1.9862,-1.9678,-1.9671,-1.9664,-1.9623,0,0,-1.9642,-1.9639,0,0,0,0,0,0,0,0,-2.0279,-2.0261,-2.0085,-2.0077,-2.0067,-1.9935,-1.9986,-1.9845,-1.9863,-1.9939,-1.9862,-1.9862,-1.9762,-1.9747,-1.9714,-1.9615,-1.9607,-1.9641,-1.9637,-1.9633,-1.9631,0,0,0,0,0,0,0,-2.0289,-2.0268,-2.0073,-2.0083,-2.0072,-2.0048,-2.0028,-1.9959,-1.9854,-1.9932,-1.9925,-1.9905,-1.9757,-1.9721,-1.9708,-1.9604,-1.9641,-1.9635,-1.963,-1.9627,-1.9465,-1.9465,0,0,0,0,0,0,-2.031,-2.0277,-2.0079,-2.0067,-2.0174,-2.0044,-2.0021,-1.9978,-1.9854,-1.9835,-1.9905,-1.9901,-1.9733,-1.9717,-1.9702,-1.9647,-1.9634,-1.9627,-1.9623,-1.9465,-1.9465,-1.9465,0,0,0,0,0,0,-2.0316,-2.0294,-2.0086,-2.017,-2.0142,-2.0039,-1.9992,-1.9974,-1.9938,-1.9833,-1.9814,-1.9888,-1.9733,-1.9712,-1.9644,-1.9639,-1.9623,-1.9617,-1.9465,-1.9465,-1.9465,-1.9538,0,0,0,0,0,0,-2.0324,-2.0296,-2.0279,-2.017,-2.0138,-2.0032,-1.9991,-1.9971,-1.9926,-1.9919,-1.9812,-1.9794,-1.9731,-1.9655,-1.9637,-1.9629,-1.9611,-1.9465,-1.9465,-1.9465,-1.9535,-1.954,-1.9545,0,0,0,0,0,-2.0334,-2.0306,-2.0279,-2.0256,-2.0114,-2.0031,-2.0013,-1.994,-1.9926,-1.9908,-1.9842,-1.9798,-1.9643,-1.9649,-1.9628,-1.9617,-1.9465,-1.9465,-1.9465,-1.9533,-1.9539,-1.9545,0,0,0,0,0,0,-2.0416,-2.0291,-2.0259,-2.0195,-2.0125,-2.0015,-1.9991,-1.9949,-1.9881,-1.9877,-1.979,-1.9767,-1.9708,-1.9656,-1.9665,-1.9573,-1.955,-1.9545,-1.9609,-1.9614,-1.9619,-1.9632,-1.9605,0,0,0,0,0,-2.0427,-2.037,-2.0263,-2.0217,-2.0184,-2.0094,-2.0055,-2.0006,-1.9929,-1.9899,-1.9827,-1.9755,-1.969,-1.9649,-1.9584,-1.9528,-1.9504,-1.951,-1.9515,-1.9519,-1.9517,-1.9485,-1.9487,-1.9465,-1.9465,-1.9465,0,0,-2.0449,-2.0373,-2.0342,-2.0232,-2.0172,-2.0115,-2.0069,-2.0011,-1.9968,-1.989,-1.9822,-1.9767,-1.9681,-1.962,-1.9589,-1.9575,-1.9518,-1.952,-1.9524,-1.9518,-1.9486,-1.9488,-1.949,-1.9466,-1.9466,-1.9466,0,0,-2.0459,-2.0395,-2.0351,-2.0292,-2.0202,-2.0143,-2.0133,-2.003,-1.9991,-1.9921,-1.9862,-1.9811,-1.9701,-1.9642,-1.9598,-1.959,-1.9548,-1.9571,-1.9595,-1.9566,-1.9568,-1.9569,-1.9567,-1.9567,-1.9569,-1.9569,-1.9569,0,-2.0496,-2.0408,-2.0333,-2.0278,-2.0233,-2.016,-2.0115,-2.0062,-1.9955,-1.9926,-1.9911,-1.9773,-1.971,-1.9635,-1.9634,-1.96,-1.9586,-1.9583,-1.9574,-1.9574,-1.9574,-1.9571,-1.9571,-1.9573,-1.9572,-1.9572,-1.9572,0,-2.046,-2.04,-2.0375,-2.0275,-2.0226,-2.0177,-2.0095,-2.0055,-2.0011,-1.9954,-1.9886,-1.9808,-1.9726,-1.9705,-1.966,-1.9624,-1.9619,-1.959,-1.9565,-1.9581,-1.9577,-1.9575,-1.9578,-1.9577,-1.9575,-1.9575,0,0,-2.0514,-2.0375,-2.0367,-2.0322,-2.0219,-2.0171,-2.012,-2.0041,-2.0009,-1.9939,-1.9894,-1.9804,-1.9778,-1.9728,-1.9677,-1.9651,-1.9652,-1.9626,-1.9623,-1.9634,-1.961,-1.9632,-1.9632,-1.9624,-1.9623,-1.9623,-1.9617,0,-2.051,-2.0413,-2.0345,-2.0276,-2.0221,-2.0153,-2.0108,-2.0041,-1.9987,-1.9933,-1.9873,-1.9812,-1.9781,-1.9751,-1.9722,-1.9658,-1.9646,-1.9658,-1.9582,-1.958,-1.9606,-1.963,-1.9652,-1.9651,-1.9615,-1.9615,-1.9615,0,-2.0491,-2.0424,-2.035,-2.0255,-2.0229,-2.019,-2.0114,-2.0063,-1.9986,-1.9949,-1.9895,-1.9843,-1.9787,-1.9768,-1.9691,-1.97,-1.9666,-1.963,-1.9628,-1.9618,-1.9598,-1.9621,-1.9648,-1.9648,-1.9611,-1.9611,-1.9612,0,-2.0539,-2.0431,-2.0372,-2.0336,-2.0223,-2.0198,-2.015,-2.0073,-2.0031,-1.9964,-1.9936,-1.9864,-1.9825,-1.9771,-1.9702,-1.9694,-1.9632,-1.9607,-1.9601,-1.9603,-1.959,-1.9592,-1.9613,-1.9568,-1.9568,-1.9568,-1.9568,0,-2.0541,-2.0498,-2.0393,-2.0357,-2.0308,-2.0231,-2.0185,-2.0131,-2.0064,-2.0017,-1.9955,-1.9912,-1.9824,-1.9771,-1.9717,-1.9662,-1.9644,-1.9614,-1.96,-1.9619,-1.9623,-1.9595,-1.9594,-1.9568,-1.9568,-1.9568,-1.9568,0,-2.0586,-2.0514,-2.0446,-2.0346,-2.032,-2.0289,-2.0203,-2.0167,-2.0111,-2.0053,-2.0035,-1.9947,-1.9882,-1.9808,-1.9719,-1.9683,-1.9632,-1.9612,-1.9658,-1.965,-1.9649,-1.9651,-1.9652,-1.9649,-1.9607,-1.9608,-1.9608,0,-2.0592,-2.0558,-2.0455,-2.042,-2.0374,-2.0318,-2.0275,-2.0199,-2.0157,-2.0069,-2.0044,-1.9975,-1.9915,-1.9815,-1.9744,-1.9676,-1.9653,-1.9659,-1.9643,-1.9664,-1.9655,-1.9658,-1.9655,-1.9663,-1.9664,-1.9665,-1.9665,0,-2.0611,-2.0577,-2.0518,-2.0447,-2.0399,-2.0339,-2.0276,-2.0251,-2.0163,-2.012,-2.0053,-2.0008,-1.9918,-1.985,-1.9774,-1.9726,-1.9682,-1.9672,-1.9667,-1.9686,-1.9715,-1.9701,-1.9671,-1.9671,-1.9671,-1.967,-1.967,-1.967,-2.0636,-2.0604,-2.0527,-2.0464,-2.041,-2.0354,-2.0316,-2.0256,-2.0199,-2.012,-2.0079,-2.0014,-1.9941,-1.9834,-1.9788,-1.9736,-1.9721,-1.9714,-1.9712,-1.9712,-1.9718,-1.9724,-1.9722,-1.9722,-1.9721,-1.9721,-1.9721,0,-2.0652,-2.0601,-2.0544,-2.046,-2.0411,-2.0374,-2.0305,-2.0266,-2.021,-2.0145,-2.0089,-2.0014,-1.995,-1.9874,-1.9805,-1.9779,-1.9757,-1.9763,-1.9765,-1.9755,-1.9734,-1.9746,-1.9782,-1.9782,-1.9782,-1.9782,-1.9782,-1.9782,-2.0655,-2.0599,-2.0557,-2.0474,-2.0422,-2.0358,-2.0322,-2.0271,-2.0219,-2.0139,-2.0085,-2.0037,-1.9968,-1.9894,-1.9834,-1.9814,-1.9792,-1.9804,-1.9779,-1.9761,-1.9756,-1.9751,-1.9761,-1.98,-1.98,-1.9803,-1.9803,-1.9803]},{"header":{"parameterUnit":"m.s-1","parameterCategory":1,"la1":30.2991,"la2":30.254,"lo1":-89.0895,"lo2":-89.0444,"dy":0.0017,"dx":0.0017,"nx":28,"ny":28,"refTime":"2023-08-22T09:00:00:Z","depth":0,"parameterNumber":3,"parameterNumberName":"V-component_of_WINDS"},"data":[0,0,0,0,0,0,0,0,0,0,0,0,0,0,0,0,0,0,0,0,0,0,0,0,0,0,0,0,0,0,0,0,0,0,0,0,0,0,0,0,0,0,0,0,0,0,0,0,0,0,0,0,0,0,0,0,0,0,0.4379,0.4378,0,0.4332,0.4332,0.4331,0.4299,0.4299,0.4299,0.4299,0.4248,0.4247,0.4246,0,0,0,0,0,0,0,0,0,0,0,0,0,0.4439,0.4438,0.4379,0.4378,0.4378,0.4332,0.4332,0.4331,0.43,0.4299,0.4299,0.4299,0.4248,0.4247,0.4246,0,0,0,0,0,0,0,0,0,0,0,0,0,0.4404,0.4438,0.4379,0.4357,0.4354,0.4332,0.4332,0.4331,0.43,0.4299,0.4299,0.4299,0.4249,0.4247,0.4245,0.4241,0,0,0.424,0.4239,0,0,0,0,0,0,0,0,0.4406,0.4402,0.4361,0.4358,0.4355,0.4321,0.4334,0.4301,0.43,0.432,0.4299,0.4298,0.4272,0.4269,0.4261,0.4239,0.4237,0.424,0.4239,0.4238,0.4238,0,0,0,0,0,0,0,0.4409,0.4404,0.436,0.436,0.4357,0.4348,0.4343,0.4328,0.4299,0.4318,0.4316,0.4311,0.4271,0.4262,0.4259,0.4236,0.424,0.4238,0.4237,0.4237,0.4208,0.4208,0,0,0,0,0,0,0.4415,0.4406,0.4362,0.4359,0.4381,0.4347,0.4342,0.4333,0.4299,0.4293,0.4311,0.431,0.4265,0.4261,0.4257,0.4249,0.4238,0.4237,0.4236,0.4207,0.4208,0.4208,0,0,0,0,0,0,0.4416,0.4411,0.4364,0.4382,0.4375,0.4347,0.4337,0.4332,0.4323,0.4293,0.4288,0.4308,0.4265,0.426,0.4245,0.4247,0.4236,0.4234,0.4207,0.4207,0.4208,0.4234,0,0,0,0,0,0,0.4418,0.4412,0.4411,0.4382,0.4374,0.4354,0.4337,0.4331,0.4321,0.4318,0.4289,0.4284,0.4264,0.4248,0.4244,0.4245,0.4233,0.4207,0.4207,0.4208,0.4233,0.4235,0.4238,0,0,0,0,0,0.4421,0.442,0.4411,0.4406,0.4372,0.4354,0.4349,0.4328,0.4321,0.4319,0.43,0.4285,0.4248,0.4247,0.4242,0.4242,0.4206,0.4207,0.4208,0.4232,0.4235,0.4237,0,0,0,0,0,0,0.4448,0.4415,0.4405,0.4395,0.4378,0.4349,0.4345,0.4332,0.4315,0.4313,0.4287,0.428,0.4269,0.4254,0.4253,0.4236,0.4225,0.4225,0.4246,0.4248,0.4251,0.4254,0.4231,0,0,0,0,0,0.4453,0.4442,0.4413,0.4407,0.4399,0.4374,0.4365,0.435,0.433,0.4323,0.4302,0.4283,0.4267,0.4257,0.4241,0.4231,0.4224,0.4229,0.4231,0.4233,0.4233,0.4226,0.4227,0.421,0.421,0.421,0,0,0.4463,0.4444,0.4438,0.4412,0.4397,0.4385,0.4368,0.4356,0.4346,0.432,0.4306,0.4291,0.4267,0.4255,0.4249,0.4242,0.4236,0.4234,0.4236,0.4234,0.4226,0.4228,0.423,0.421,0.421,0.421,0,0,0.4475,0.446,0.4452,0.4438,0.4415,0.4398,0.4397,0.437,0.4359,0.4344,0.4324,0.4312,0.4286,0.427,0.4258,0.4265,0.4249,0.426,0.4271,0.4265,0.4266,0.4267,0.4268,0.4269,0.426,0.426,0.426,0,0.449,0.4471,0.445,0.4439,0.4428,0.4406,0.4398,0.4384,0.4357,0.4349,0.4343,0.431,0.4292,0.4276,0.4278,0.4269,0.4266,0.4262,0.4268,0.4269,0.4269,0.427,0.4271,0.4261,0.4261,0.4261,0.4261,0,0.449,0.4478,0.4475,0.445,0.4439,0.4429,0.4406,0.4397,0.4383,0.4367,0.4352,0.4331,0.431,0.4305,0.4291,0.4287,0.4283,0.4273,0.4262,0.4273,0.4273,0.4273,0.4263,0.4263,0.4262,0.4262,0,0,0.4517,0.4481,0.448,0.4468,0.4442,0.4431,0.4421,0.4401,0.4394,0.4376,0.4366,0.4344,0.4335,0.4321,0.4306,0.43,0.4306,0.4291,0.429,0.4293,0.4298,0.4305,0.4306,0.4296,0.4296,0.4296,0.43,0,0.4523,0.4504,0.4485,0.4472,0.446,0.4439,0.4429,0.4412,0.4396,0.4383,0.4366,0.4351,0.434,0.4332,0.4326,0.4307,0.4306,0.4306,0.4285,0.4285,0.4291,0.4306,0.4314,0.4318,0.43,0.43,0.43,0,0.4528,0.4512,0.4498,0.4473,0.4467,0.4459,0.4439,0.4428,0.4407,0.4396,0.4382,0.4366,0.4353,0.4344,0.4326,0.4326,0.4316,0.4306,0.4306,0.4302,0.4292,0.4302,0.4319,0.4319,0.43,0.43,0.43,0,0.4548,0.4523,0.4511,0.4502,0.4472,0.4467,0.4454,0.4434,0.4423,0.4406,0.4398,0.438,0.4369,0.4355,0.4333,0.4329,0.4316,0.4306,0.4306,0.4307,0.4303,0.4303,0.4318,0.4299,0.4299,0.4299,0.4299,0,0.4556,0.4548,0.4519,0.4512,0.4502,0.448,0.4471,0.4456,0.4438,0.4427,0.4408,0.4397,0.4371,0.4357,0.4341,0.4327,0.4323,0.4313,0.4308,0.4314,0.4315,0.4306,0.4305,0.4299,0.4299,0.4299,0.4299,0,0.4575,0.4556,0.4541,0.4515,0.4508,0.4502,0.4479,0.4471,0.4455,0.4441,0.4437,0.4411,0.4394,0.4373,0.4348,0.4337,0.4325,0.4319,0.4332,0.4329,0.433,0.433,0.4338,0.4338,0.4321,0.4321,0.4322,0,0.4582,0.4575,0.4548,0.454,0.4528,0.4515,0.4504,0.4482,0.4472,0.4448,0.4443,0.4425,0.4409,0.4382,0.4361,0.4343,0.4335,0.4339,0.4332,0.4338,0.4334,0.4334,0.4333,0.434,0.4341,0.4341,0.4341,0,0.4594,0.4585,0.4571,0.4553,0.4541,0.4526,0.451,0.4504,0.4479,0.4468,0.4451,0.4439,0.4415,0.4397,0.4375,0.4361,0.4347,0.4344,0.4343,0.4348,0.4355,0.435,0.4336,0.4344,0.4343,0.4343,0.4343,0.4343,0.4606,0.4599,0.458,0.4564,0.455,0.4536,0.4527,0.451,0.4496,0.4475,0.4463,0.4446,0.4426,0.4396,0.4382,0.4368,0.4363,0.4361,0.4361,0.436,0.4362,0.4359,0.4364,0.4364,0.4364,0.4364,0.4364,0,0.4617,0.4604,0.459,0.4568,0.4556,0.4545,0.4527,0.4517,0.4503,0.4485,0.4471,0.4451,0.4433,0.4411,0.4392,0.4385,0.4378,0.438,0.438,0.4377,0.4368,0.4371,0.4387,0.4387,0.4387,0.4387,0.4387,0.4387,0.4621,0.4609,0.4597,0.4577,0.4563,0.4547,0.4538,0.4524,0.451,0.4489,0.4475,0.4461,0.4442,0.4421,0.4404,0.4398,0.4391,0.4396,0.4388,0.438,0.4378,0.4376,0.4378,0.4395,0.4395,0.4397,0.4397,0.4397]}]]